This is the latest recevied weather packets stored in our database for station/object K6HFP. If no packets are shown the sender has not sent any weather packets the latest 10 day(s).
| Time | Temp. | Humidity | Pressure | Rain* | Wind** | Luminosity | Snow |
|---|---|---|---|---|---|---|---|
| 1777309510 | 12.22° C | 72% | 1016.1 hPa | 0 mm | - | 658 W/m² | - |
| 1777309207 | 12.22° C | 74% | 1016.3 hPa | 0 mm | - | 650 W/m² | - |
| 1777308906 | 11.67° C | 74% | 1016.2 hPa | 0 mm | - | 640 W/m² | - |
| 1777308606 | 11.67° C | 76% | 1016.2 hPa | 0 mm | - | 377 W/m² | - |
| 1777308302 | 12.22° C | 74% | 1016 hPa | 0 mm | - | 191 W/m² | - |
| 1777307997 | 12.22° C | 75% | 1016.1 hPa | 0 mm | - | 659 W/m² | - |
| 1777307696 | 11.67° C | 76% | 1016.2 hPa | 0 mm | - | 703 W/m² | - |
| 1777307392 | 11.67° C | 75% | 1016.1 hPa | 0 mm | - | 588 W/m² | - |
| 1777307089 | 11.11° C | 75% | 1016.3 hPa | 0 mm | - | 552 W/m² | - |
| 1777306787 | 11.11° C | 76% | 1016.2 hPa | 0 mm | - | 512 W/m² | - |
| 1777306484 | 11.11° C | 77% | 1016.2 hPa | 0 mm | - | 481 W/m² | - |
| 1777306179 | 10.56° C | 78% | 1016.2 hPa | 0 mm | - | 443 W/m² | - |
| 1777305874 | 10.56° C | 78% | 1016.1 hPa | 0 mm | - | 422 W/m² | - |
| 1777305571 | 10.56° C | 78% | 1015.9 hPa | 0 mm | - | 402 W/m² | - |
| 1777305267 | 10.56° C | 79% | 1015.9 hPa | 0 mm | - | 382 W/m² | - |
| 1777304966 | 10° C | 79% | 1015.8 hPa | 0 mm | - | 360 W/m² | - |
| 1777304663 | 10° C | 79% | 1015.9 hPa | 0 mm | - | 341 W/m² | - |
| 1777304360 | 10° C | 81% | 1015.9 hPa | 0 mm | - | 298 W/m² | - |
| 1777304058 | 10° C | 81% | 1015.7 hPa | 0 mm | - | 302 W/m² | - |
| 1777303754 | 10° C | 81% | 1015.9 hPa | 0 mm | - | 250 W/m² | - |
| 1777303451 | 10° C | 81% | 1015.8 hPa | 0 mm | - | 271 W/m² | - |
| 1777303149 | 10° C | 81% | 1015.9 hPa | 0 mm | - | 249 W/m² | - |
| 1777302847 | 9.44° C | 82% | 1016.1 hPa | 0 mm | - | 242 W/m² | - |
| 1777302543 | 9.44° C | 82% | 1015.7 hPa | 0 mm | - | 223 W/m² | - |
| 1777302242 | 9.44° C | 83% | 1015.9 hPa | 0 mm | - | 203 W/m² | - |
* Rain latest hour (hover to see other rain measurements)
** Current wind speed in m/s (hover to see current wind gust speed)